Temperature
14 14 14 13 13 13 13 13 13 13 13 13 13 13 13 12 12 12 12 12 12 12 12 12 12 11 11 11 11 11 11 11 11 11 11 11 11 11 11 11 11 11 11
14 13 13 13 13 13 13 13 12 12 12 12 12 12 12 12 12 12 12 12 12 12 11 11 11 11 11 11 11 11 11 11 11 11 10 10 10 10 10 10 10 10 10
13 13 13 13 13 13 12 12 12 12 12 12 12 12 12 12 12 12 11 11 11 11 11 11 11 11 11 11 11 11 11 11 11 10 10 10 10 10 10 10 10 10 10
13 13 13 12 12 12 12 12 12 12 12 12 12 12 12 11 11 11 11 11 11 11 11 11 11 11 11 10 10 10 10 10 10 10 10 10 10 10 10 10 10 10 10
13 13 13 12 12 12 12 12 12 12 11 11 11 11 11 11 11 11 11 11 11 11 11 10 10 10 10 10 10 10 10 10 10 10 10 10 10 10 10 10 10 10 10
12 12 12 12 12 12 12 12 11 11 11 11 11 11 11 11 11 10 10 10 10 10 10 10 10 10 10 10 10 10 10 10 10 9 9 9 9 9 9 9 9 9 9
12 12 12 12 12 12 11 11 11 11 11 11 11 10 11 10 10 10 10 10 10 10 10 10 10 10 10 9 9 9 9 9 9 9 9 9 9 9 9 9 9 9 9
12 12 12 12 11 11 11 11 11 11 10 10 10 10 10 10 10 10 9 9 9 9 9 9 9 9 9 9 9 9 9 9 9 9 9 9 9 9 9 9 9 8 8
12 11 11 11 11 11 11 11 10 10 10 10 10 10 10 10 9 9 9 9 9 9 9 9 9 9 9 9 9 9 9 9 9 8 8 8 8 8 8 8 8 8 8
11 11 11 11 10 10 10 10 10 10 10 9 9 9 9 9 9 9 8 9 9 9 8 8 8 8 8 8 8 8 8 8 8 8 8 8 8 8 8 8 8 8 8
11 11 10 10 10 10 10 10 10 9 9 9 9 9 9 9 9 8 8 8 8 8 8 8 8 8 8 8 7 7 7 7 7 8 8 8 8 8 8 7 7 7 7
10 10 10 10 10 10 9 9 9 9 9 9 8 8 8 8 8 8 8 8 7 7 7 7 7 7 7 7 7 7 7 7 7 7 7 7 7 7 7 7 7 7 7
10 10 10 9 9 9 9 9 9 8 8 8 8 8 8 8 8 7 7 7 7 7 7 7 6 6 6 6 7 6 6 6 6 6 6 6 6 6 6 6 6 6 6
10 9 9 9 9 9 9 8 8 8 8 8 8 8 8 7 7 7 7 7 7 6 6 6 6 6 6 6 6 6 6 6 5 6 6 6 6 6 6 6 6 6 6
9 9 9 8 8 8 8 8 8 8 7 7 7 7 7 7 7 7 6 6 6 6 6 6 6 6 5 5 5 5 5 5 5 5 5 5 5 5 5 5 5 5 5
9 8 8 8 8 8 8 7 7 7 7 7 7 7 6 6 6 6 6 6 6 6 5 5 5 5 5 5 5 5 5 5 5 5 5 5 5 5 5 5 5 5 5
8 8 8 8 8 7 7 7 7 7 7 6 6 6 6 6 6 6 6 6 5 5 5 5 5 5 4 4 4 4 4 4 4 4 4 4 4 4 4 4 4 4 4
8 7 7 7 7 7 7 7 6 6 6 6 6 6 6 6 5 5 5 5 5 5 5 4 4 4 4 4 4 4 4 4 4 4 4 4 4 4 4 4 4 4 4
7 7 7 7 7 7 6 6 6 6 5 5 5 5 5 5 5 5 4 4 4 4 4 4 4 4 4 4 4 3 3 3 3 3 3 3 3 3 3 3 3 3 3
7 7 7 7 6 6 6 6 6 5 5 5 5 5 5 4 4 4 4 4 4 4 4 4 3 3 3 3 3 3 3 3 3 2 2 2 2 3 3 3 3 3 3
7 6 6 6 6 6 6 5 5 5 5 4 4 4 4 4 4 4 4 4 3 3 3 3 3 3 3 3 2 2 2 2 2 2 2 2 2 2 2 2 2 3 2
6 6 6 6 6 5 5 5 5 5 4 4 4 4 3 3 3 3 3 3 3 3 3 3 2 2 2 2 2 2 2 2 2 2 1 1 1 2 2 2 2 2 2
6 6 5 5 5 5 5 5 4 4 4 3 3 3 3 3 3 3 3 3 2 2 2 2 2 2 2 2 2 1 1 1 1 1 1 1 1 1 1 1 1 1 2
6 5 5 5 5 4 4 4 4 4 3 3 3 3 3 2 2 2 2 2 2 2 2 2 2 1 1 1 1 1 1 1 1 1 1 1 1 1 1 1 1 1 1
5 5 5 4 4 4 4 4 3 3 3 3 3 2 2 2 2 2 2 2 2 2 1 1 1 1 1 1 1 1 1 0 0 0 0 0 0 0 0 0 1 1 1
5 4 4 4 4 3 3 3 3 3 3 2 2 2 2 2 2 2 1 1 1 1 1 1 1 1 1 0 0 0 0 0 0 0 0 0 0 0 0 0 0 0 0
Wind_Speed
3 3 3 2 2 3 3 3 3 2 2 2 2 2 1 1 2 2 2 2 2 2 1 2 2 2 1 1 1 1 1 2 2 2 1 1 1 1 2 2 2 3 3
3 3 3 2 2 2 2 2 2 2 2 2 2 2 2 2 2 2 2 2 2 2 2 2 2 1 1 1 2 2 2 2 3 2 2 1 2 2 1 1 1 2 2
4 3 3 2 2 2 3 2 2 2 2 2 2 2 2 2 2 2 3 3 3 3 3 3 3 2 2 1 2 2 2 2 2 2 2 1 1 1 1 1 1 1 2
4 4 3 3 3 3 2 2 2 3 2 2 2 2 2 2 2 2 2 2 2 2 2 2 3 3 3 3 2 2 2 2 1 1 2 1 1 1 0 1 2 1 2
4 4 4 3 3 2 2 3 2 2 2 2 2 1 1 2 2 2 2 3 3 2 2 2 3 4 4 3 2 2 3 2 2 1 1 1 1 1 2 1 2 2 2
4 4 4 3 3 3 3 3 2 2 1 1 2 2 2 2 2 3 3 2 2 2 2 2 3 3 3 3 4 3 4 4 4 3 2 3 3 3 2 2 1 1 2
3 3 3 3 3 3 3 2 3 2 2 2 2 2 2 3 3 3 3 2 3 3 3 3 2 2 2 2 3 3 4 5 5 4 4 5 4 5 3 3 3 3 3
3 3 3 3 3 3 3 3 3 2 2 2 2 2 2 3 3 3 3 2 2 3 3 4 3 3 3 3 2 2 3 4 5 4 5 6 5 5 5 5 4 2 2
3 3 3 3 4 4 4 4 3 2 2 2 2 2 2 3 3 2 2 1 2 2 3 3 3 3 4 3 2 3 3 4 4 6 6 6 6 5 4 2 2 2 2
4 3 3 3 4 5 5 4 2 3 3 2 2 2 3 3 4 3 3 2 2 2 2 2 3 3 4 3 3 3 4 4 3 2 3 3 3 3 5 5 4 3 2
3 2 2 3 4 4 3 3 3 3 2 1 2 2 2 3 4 4 4 3 3 2 2 3 3 4 4 4 3 3 5 4 2 2 2 1 1 1 2 3 4 4 4
3 2 2 3 3 3 3 3 3 3 2 2 1 2 2 3 3 4 5 4 3 3 3 3 4 5 5 4 3 4 4 2 1 1 1 2 2 3 3 3 4 4 4
2 2 3 2 2 3 4 4 3 3 3 2 2 3 3 2 3 4 5 5 4 3 3 4 4 4 3 2 3 3 2 1 1 1 2 3 3 3 2 1 1 1 2
3 3 3 2 2 2 3 3 3 3 3 3 3 3 3 2 2 2 3 3 4 3 2 2 3 2 1 1 2 2 2 2 2 3 3 3 2 1 2 2 2 1 2
3 3 2 2 2 2 2 2 3 4 4 4 4 4 3 4 5 5 3 3 3 3 1 0 0 1 1 1 1 2 2 1 2 2 2 2 2 3 3 2 2 2 2
3 3 2 2 2 2 2 1 3 3 4 5 4 4 4 6 6 5 6 5 5 4 2 1 2 2 3 3 3 3 2 3 3 3 3 3 3 3 3 2 2 3 3
4 4 3 3 2 2 2 3 2 2 2 3 3 4 4 5 5 5 5 4 4 4 2 2 3 4 4 4 3 3 3 3 2 3 3 3 3 3 3 3 3 3 3
4 4 3 3 3 3 3 3 3 2 2 2 3 4 4 4 4 4 3 1 2 2 2 3 3 3 3 3 3 3 3 3 2 3 3 3 4 3 4 4 4 4 4
4 3 3 3 3 3 2 2 2 3 2 2 2 3 3 3 2 2 2 1 2 3 3 3 3 3 3 3 3 3 3 3 3 3 3 3 3 3 4 4 4 5 4
3 5 3 3 2 2 2 2 2 2 2 2 3 3 1 1 1 2 2 2 2 3 3 3 3 3 3 3 3 3 3 3 3 3 3 3 3 3 4 5 4 4 4
3 4 4 2 3 3 3 3 3 3 3 3 3 4 4 2 3 3 3 3 3 4 3 3 3 3 3 3 3 3 4 3 3 3 3 3 4 4 4 4 5 5 4
3 3 3 3 2 3 3 3 3 3 4 4 3 3 4 2 2 3 3 4 4 4 4 3 3 3 3 4 4 4 4 4 4 4 4 4 4 4 4 4 4 4 4
3 3 3 2 2 3 3 2 3 3 3 3 3 2 2 3 3 3 4 3 3 3 3 3 3 3 4 5 5 5 4 5 5 4 4 4 4 4 4 4 5 5 5
3 3 3 2 2 2 2 3 3 3 3 3 3 3 3 3 4 4 4 3 3 3 4 4 5 5 6 5 5 6 6 7 6 6 6 5 5 5 4 4 5 5 5
2 2 3 3 3 3 3 3 3 3 3 3 3 3 3 4 4 4 4 3 4 4 4 5 5 5 7 7 7 6 8 8 8 6 6 6 6 6 5 5 5 5 5
2 2 2 2 3 3 3 3 3 3 3 3 3 3 3 4 4 4 4 4 4 4 4 5 6 6 7 7 8 8 9 9 8 8 6 5 5 5 5 5 6 6 6
Wind_Direction
170 171 165 174 171 166 178 199 197 184 181 185 192 191 190 188 184 170 186 182 182 200 188 184 217 201 184 197 173 168 179 168 195 270 278 298 281 295 319 285 259 239 243
172 160 164 165 158 167 191 207 192 188 196 192 185 178 188 194 188 180 197 197 195 202 209 195 221 205 199 198 175 184 192 188 184 228 273 277 269 278 296 303 293 263 248
161 154 153 158 173 188 196 191 182 182 186 185 175 180 193 203 200 200 203 205 203 210 211 210 221 189 205 206 195 199 201 198 190 202 249 253 281 302 323 309 318 306 280
164 163 172 187 196 202 198 183 183 182 182 192 193 200 206 208 204 206 207 207 208 218 218 218 219 204 208 202 205 206 191 181 179 197 239 251 266 283 272 269 309 306 293
170 175 192 194 183 177 187 191 188 185 192 191 188 206 212 213 209 198 202 201 200 207 221 228 231 221 220 210 209 199 181 179 180 196 232 247 248 250 247 233 250 295 289
181 196 194 178 173 184 192 180 175 186 193 182 198 206 219 236 236 221 201 195 205 204 227 249 249 231 238 235 236 218 195 190 198 199 220 230 240 230 225 231 223 265 279
194 202 193 181 186 201 197 173 185 194 184 196 212 212 228 251 251 240 225 198 203 217 224 235 254 252 247 233 247 245 234 231 215 202 212 230 230 221 201 216 226 227 241
192 201 200 189 197 200 191 197 203 193 193 207 219 223 230 258 262 245 225 208 211 228 225 219 224 248 238 229 219 244 254 253 241 231 225 235 231 214 203 208 212 223 265
196 208 209 205 201 194 199 207 202 183 193 211 213 208 215 253 261 247 210 192 211 241 241 228 225 235 253 249 208 234 263 276 267 253 251 253 252 234 197 161 172 190 257
209 211 211 207 204 201 206 205 195 185 198 204 219 222 219 237 246 237 215 192 213 247 261 252 244 243 258 249 223 221 245 263 272 286 282 275 257 229 210 196 197 204 223
205 194 203 209 210 201 197 196 181 179 174 193 228 255 247 246 247 242 224 206 213 225 241 249 251 254 256 249 245 227 243 251 240 238 258 278 286 237 221 215 210 207 213
183 191 208 213 208 189 172 181 179 172 170 194 230 272 275 266 255 246 239 239 232 214 234 239 244 250 250 248 246 254 262 266 197 217 248 259 256 251 244 240 232 232 235
183 208 221 221 212 183 174 180 183 181 187 205 217 241 262 266 260 256 249 248 248 240 236 244 250 249 245 249 259 263 257 216 199 222 242 254 254 249 241 257 266 261 284
198 222 220 210 217 199 187 184 188 199 204 212 223 237 251 259 261 257 242 247 249 257 251 245 256 254 240 255 272 261 234 223 223 231 243 256 262 248 241 231 245 256 271
214 221 223 212 208 203 198 204 206 214 213 217 221 221 229 250 256 254 243 235 224 223 212 201 204 236 245 269 277 263 248 239 248 251 246 253 257 250 251 241 235 232 235
222 222 214 209 210 202 194 259 266 251 253 250 241 234 241 250 259 257 255 251 240 216 196 211 224 223 231 238 244 251 248 245 244 247 243 241 245 246 242 234 232 227 237
219 225 216 206 205 209 201 199 241 301 300 274 263 261 262 266 262 260 257 251 240 216 215 220 226 225 233 236 236 236 240 247 242 244 249 247 247 249 244 234 232 235 241
223 228 220 207 206 208 211 209 208 215 259 291 290 271 268 269 268 268 264 240 247 234 226 226 232 231 232 232 234 238 244 246 244 247 252 253 246 244 239 235 233 231 234
222 226 220 207 202 205 207 205 204 211 228 255 295 299 280 277 279 268 227 206 218 237 241 242 240 235 235 233 234 238 241 243 245 249 254 260 255 246 245 242 236 236 235
229 236 224 205 199 199 200 202 206 216 228 236 246 258 271 298 270 250 231 225 226 235 240 247 250 244 242 241 239 238 242 245 247 249 253 257 257 250 251 248 234 230 233
224 234 231 217 203 203 204 211 214 215 225 238 247 245 233 224 224 228 229 227 229 234 238 241 244 241 241 241 239 236 236 243 243 247 253 257 254 254 257 253 241 234 232
210 215 215 216 211 209 212 213 216 221 226 236 255 258 246 234 226 228 230 235 234 234 232 230 235 235 230 232 232 235 240 244 246 245 250 256 256 254 254 251 246 239 233
203 205 211 215 211 218 221 221 222 224 230 236 240 241 239 237 236 236 237 238 237 238 231 222 227 234 231 231 229 226 233 240 239 236 242 250 251 252 250 248 250 248 237
201 200 205 214 213 212 219 226 230 232 233 237 239 236 236 238 240 240 243 242 237 234 227 223 225 230 232 235 238 238 239 242 241 237 234 240 246 247 247 249 249 250 241
199 202 204 209 213 217 224 229 232 234 237 240 243 243 241 239 242 241 239 236 234 234 233 230 231 233 233 237 241 244 248 250 251 247 239 235 239 237 241 246 247 249 241
197 205 210 211 213 217 222 229 231 235 238 244 244 241 244 245 245 243 236 230 232 236 238 237 237 237 242 245 246 250 252 253 255 255 247 234 238 242 241 245 248 244 236
Height
1514 1515 1516 1517 1518 1518 1519 1520 1520 1521 1522 1522 1523 1524 1524 1524 1525 1525 1526 1526 1526 1526 1527 1527 1527 1528 1528 1528 1528 1528 1528 1528 1527 1528 1528 1529 1529 1528 1528 1528 1528 1528 1528
1512 1513 1514 1514 1515 1516 1516 1517 1518 1519 1520 1520 1521 1521 1522 1522 1522 1523 1523 1523 1523 1524 1524 1524 1525 1525 1525 1525 1525 1526 1526 1526 1525 1525 1525 1526 1526 1526 1526 1526 1526 1525 1526
1510 1510 1511 1512 1513 1513 1514 1515 1516 1516 1517 1518 1518 1519 1519 1519 1520 1520 1520 1520 1521 1521 1521 1521 1522 1522 1522 1522 1523 1523 1523 1523 1523 1523 1522 1523 1523 1523 1523 1523 1523 1523 1523
1507 1508 1509 1509 1510 1511 1512 1513 1513 1514 1514 1515 1516 1516 1516 1517 1517 1517 1517 1517 1518 1518 1518 1518 1519 1519 1519 1519 1519 1520 1520 1520 1520 1520 1520 1519 1520 1520 1520 1520 1520 1520 1520
1505 1505 1506 1507 1508 1508 1509 1510 1511 1511 1512 1512 1513 1513 1514 1514 1514 1514 1514 1514 1514 1514 1515 1515 1515 1516 1516 1516 1517 1517 1517 1517 1517 1517 1516 1516 1516 1517 1517 1517 1517 1517 1517
1502 1503 1503 1504 1505 1506 1506 1507 1508 1508 1509 1509 1510 1510 1510 1510 1510 1510 1511 1511 1510 1510 1511 1511 1512 1512 1512 1513 1514 1514 1514 1514 1513 1513 1513 1513 1513 1514 1514 1514 1514 1513 1513
1500 1500 1501 1501 1502 1502 1503 1504 1504 1505 1506 1506 1506 1507 1507 1507 1507 1507 1507 1507 1507 1507 1507 1508 1508 1508 1509 1509 1510 1510 1510 1510 1511 1511 1510 1510 1510 1510 1510 1510 1510 1510 1509
1497 1497 1498 1498 1499 1499 1500 1501 1501 1501 1502 1502 1502 1503 1503 1503 1503 1503 1503 1504 1503 1504 1504 1504 1504 1504 1505 1506 1506 1506 1506 1506 1506 1506 1507 1507 1507 1507 1507 1507 1506 1506 1506
1494 1494 1494 1495 1496 1496 1496 1497 1497 1498 1498 1498 1499 1499 1499 1499 1499 1500 1500 1499 1499 1499 1500 1500 1500 1501 1501 1502 1502 1502 1502 1502 1502 1502 1502 1502 1502 1503 1503 1503 1502 1502 1502
1491 1491 1492 1492 1492 1493 1493 1493 1494 1494 1494 1494 1495 1495 1495 1496 1496 1496 1496 1496 1495 1495 1496 1496 1496 1497 1497 1498 1498 1498 1497 1497 1498 1497 1498 1498 1498 1498 1498 1498 1498 1498 1498
1488 1489 1489 1489 1489 1489 1489 1490 1490 1490 1490 1491 1491 1491 1491 1492 1492 1492 1492 1492 1491 1491 1491 1491 1492 1492 1493 1493 1494 1494 1493 1494 1493 1493 1493 1493 1493 1493 1493 1493 1494 1494 1494
1485 1485 1486 1485 1485 1485 1486 1486 1486 1486 1486 1486 1487 1487 1487 1487 1487 1487 1487 1487 1487 1487 1487 1487 1487 1488 1489 1489 1489 1489 1490 1490 1489 1489 1489 1488 1489 1488 1488 1489 1489 1489 1490
1481 1482 1482 1482 1482 1482 1482 1482 1482 1482 1482 1482 1482 1482 1482 1483 1483 1483 1483 1483 1483 1483 1483 1483 1483 1484 1484 1484 1485 1485 1485 1485 1484 1484 1484 1484 1484 1484 1484 1484 1484 1485 1485
1478 1478 1478 1478 1478 1478 1478 1478 1478 1478 1478 1478 1478 1478 1478 1478 1479 1479 1479 1479 1479 1479 1479 1479 1479 1479 1479 1480 1480 1480 1480 1480 1480 1480 1479 1480 1480 1480 1479 1479 1479 1479 1479
1475 1475 1474 1474 1474 1474 1474 1474 1474 1475 1475 1474 1474 1474 1474 1474 1475 1475 1475 1474 1474 1474 1474 1474 1474 1474 1474 1475 1475 1475 1476 1476 1476 1476 1476 1475 1475 1475 1475 1475 1475 1475 1475
1471 1471 1471 1471 1470 1470 1470 1470 1470 1471 1471 1471 1470 1471 1470 1471 1470 1470 1470 1470 1470 1470 1470 1469 1469 1470 1470 1470 1470 1471 1471 1471 1471 1471 1471 1471 1471 1471 1470 1470 1470 1470 1470
1467 1467 1467 1467 1467 1466 1466 1466 1466 1466 1466 1466 1466 1466 1466 1466 1466 1466 1466 1466 1466 1466 1465 1465 1465 1465 1465 1466 1466 1466 1466 1466 1467 1467 1467 1466 1466 1466 1466 1466 1466 1466 1466
1464 1464 1463 1463 1463 1463 1463 1463 1463 1462 1462 1461 1462 1462 1462 1462 1462 1461 1461 1461 1461 1461 1461 1461 1461 1461 1461 1461 1462 1462 1462 1462 1462 1462 1462 1462 1462 1461 1461 1461 1461 1461 1461
1460 1460 1459 1459 1459 1459 1459 1459 1459 1459 1458 1458 1458 1458 1458 1457 1457 1457 1457 1456 1456 1456 1456 1456 1456 1456 1456 1457 1457 1457 1457 1457 1457 1457 1457 1457 1457 1457 1457 1457 1457 1457 1457
1456 1456 1455 1455 1454 1455 1455 1455 1455 1455 1454 1454 1454 1454 1453 1453 1452 1452 1452 1452 1452 1452 1452 1452 1452 1452 1452 1452 1452 1452 1452 1452 1452 1452 1452 1452 1452 1452 1452 1452 1452 1452 1452
1452 1451 1451 1450 1450 1450 1450 1450 1450 1450 1450 1450 1450 1450 1449 1449 1448 1448 1448 1448 1448 1448 1448 1448 1447 1447 1447 1447 1447 1447 1447 1447 1447 1447 1447 1447 1447 1447 1447 1447 1447 1447 1447
1448 1447 1446 1446 1446 1446 1446 1446 1446 1446 1446 1445 1445 1445 1445 1444 1444 1444 1443 1443 1443 1443 1443 1443 1443 1443 1443 1443 1443 1443 1442 1442 1442 1442 1442 1442 1442 1442 1442 1442 1442 1442 1442
1443 1442 1442 1442 1442 1442 1442 1442 1442 1442 1441 1441 1441 1440 1440 1440 1439 1439 1439 1439 1439 1439 1438 1438 1438 1438 1438 1438 1438 1437 1437 1437 1437 1437 1437 1437 1437 1437 1437 1437 1437 1437 1437
1439 1438 1438 1438 1438 1438 1437 1437 1438 1437 1437 1437 1436 1436 1436 1435 1435 1434 1434 1434 1434 1434 1433 1433 1433 1433 1433 1432 1432 1432 1432 1432 1432 1432 1432 1432 1432 1432 1431 1431 1432 1432 1432
1435 1435 1434 1434 1434 1434 1434 1434 1433 1433 1433 1432 1432 1432 1431 1431 1430 1430 1429 1429 1429 1429 1428 1428 1428 1427 1427 1427 1427 1427 1427 1427 1427 1427 1427 1427 1427 1426 1426 1426 1426 1427 1427
1431 1431 1431 1430 1430 1430 1430 1430 1429 1429 1429 1428 1428 1428 1427 1427 1426 1425 1425 1424 1424 1423 1423 1422 1422 1422 1421 1421 1421 1421 1421 1421 1421 1421 1421 1421 1421 1421 1421 1421 1421 1421 1421